Regional Weather Roundup
Issued by NWS Jackson, KY

Home | Current Version | Previous Version | Graphics & Text | Print | Product List | Glossary On
Versions: 1 2 3 4 5 6 7 8 9 10 11 12 13 14 15 16 17 18 19 20 21 22 23 24 25 26 27
000
ASUS43 KJKL 240710
RWRJKL

EAST KENTUCKY HOURLY WEATHER ROUNDUP
NATIONAL WEATHER SERVICE JACKSON KY
300 AM EDT SAT JUN 24 2017

NOTE: "FAIR" INDICATES FEW OR NO CLOUDS BELOW 12,000 FEET WITH
NO SIGNIFICANT WEATHER AND/OR OBSTRUCTIONS TO VISIBILITY.

* THESE REPORTS ARE NOT UNDER NWS QUALITY CONTROL AND MAY NOT
  REPORT WEATHER SUCH AS PRECIPITATION AND FOG.

KYZ079-080-083-085-087-088-110-112-115-119-120-240800
...EASTERN KENTUCKY...

CITY           SKY/WX    TMP DP  RH WIND       PRES   REMARKS
JACKSON        LGT RAIN  66  65  96 VRB3      29.90F VSB 1/2
LONDON         CLOUDY    68  66  93 CALM      29.90F
SOMERSET*      CLOUDY    68  68 100 CALM      29.91S
MONTICELLO*    CLOUDY    71  71 100 W12       29.91F
WILLIAMSBURG*  CLOUDY    66  66 100 CALM      29.90F
MIDDLESBORO*   PTCLDY    66  66 100 CALM      29.92F
HARLAN APT*    CLOUDY    64  63  94 CALM      29.93F VSB 3/4
BIG SANDY APT* CLOUDY    65  65 100 SW6       29.90S
MOREHEAD APT*  LGT RAIN  66  64  94 W6        29.91R VSB<1/4
$$

KYZ035-036-041-042-044-050-067-078-099-240800
...CENTRAL KENTUCKY...

CITY           SKY/WX    TMP DP  RH WIND       PRES   REMARKS
MT STERLING*   HVY RAIN  66  66 100 W5        29.91S
FLEMING/MASON* MOCLDY    65  65 100 CALM      29.90S
DANVILLE*      CLOUDY    68  68 100 NW3       29.91S
LEXINGTON      PTCLDY    68  66  93 W3        29.90S
FRANKFORT      PTCLDY    67  63  87 CALM      29.89S
LOUISVILLE     MOCLDY    68  67  96 CALM      29.89S
LEBANON*         N/A    N/A N/A N/A MISG        N/A
GLASGOW*       CLOUDY    71  71 100 N7        29.91R
BOWLING GREEN  PTCLDY    72  71  97 NW5       29.91R
$$

KYZ091>093-OHZ055-061-077-WVZ005-015-034-035-042-240800
...SOUTHERN OHIO/WEST VIRGINIA...

CITY           SKY/WX    TMP DP  RH WIND       PRES   REMARKS
COVINGTON      CLEAR     65  65 100 SW3       29.88R
COLUMBUS       CLEAR     66  65  96 W9        29.81S
DAYTON         PTCLDY    61  59  93 W8        29.86S
WILMINGTON     PTCLDY    64  64 100 W8        29.86S FOG
HUNTINGTON     LGT RAIN  66  64  93 CALM      29.87R
CHARLESTON     CLOUDY    67  64  90 W10       29.87R
PINEVILLE*     CLOUDY    65  63  94 MISG      29.96S
BECKLEY        CLOUDY    63  61  93 W7        29.91S
BLUEFIELD      CLOUDY    61  59  93 W10G18    29.94R
LOGAN CO APT*  CLOUDY    64  64 100 CALM      29.90S
$$

VAZ002-007-008-TNZ017-027-036-066-071-240800
...SOUTHWEST VIRGINIA/EAST TENNESSEE...

CITY           SKY/WX    TMP DP  RH WIND       PRES   REMARKS
WISE*          CLEAR     61  61 100 CALM      29.98S
JONESVILLE*      N/A     64  64 100 CALM      29.95S
ABINGDON*      CLEAR     66  65  97 CALM      29.95S
BRISTOL        PTCLDY    67  64  90 SW3       29.94R
MORRISTOWN*    MOSUNNY   68  66  94 CALM      29.92S
SEVIERVILLE*   PTSUNNY   72  70  94 S3        29.91S
KNOXVILLE      CLOUDY    73  70  90 SW12      29.91S
LAFOLLETTE*      N/A     70  70 100 CALM      29.94F
OAK RIDGE      CLOUDY    73  71  93 VRB5      29.92S
CROSSVILLE     LGT RAIN  71  70  96 CALM      29.96S FOG
NASHVILLE      CLOUDY    76  70  82 NW7       29.93R
$$

...KEY TO REMARKS...
VSB - VISIBILITY IN MILES
WCI - WIND CHILL INDEX
HX  - HEAT INDEX

$$




USA.gov is the U.S. government's official web portal to all federal, state and local government web resources and services.